Regional Weather Roundup
Issued by NWS

Home | Current Version | Previous Version | Text Only | Print | Product List | Glossary Off
Versions: 1 2 3 4 5 6 7 8 9 10 11 12 13 14 15 16 17 18 19 20 21 22 23 24 25 26 27 28 29 30 31 32 33 34 35 36 37 38 39 40 41 42 43 44 45 46 47 48 49 50

000
ASUS43 KBIS 291501
RWRND

NORTH DAKOTA REGIONAL WEATHER ROUNDUP
NATIONAL WEATHER SERVICE BISMARCK ND
1000 AM CDT SUN MAR 29 2015

NOTE: "FAIR" INDICATES FEW OR NO CLOUDS BELOW 12,000 FEET WITH NO
SIGNIFICANT WEATHER AND/OR OBSTRUCTIONS TO VISIBILITY.


NDZ001>003-009>011-017-291600-
NORTHWEST NORTH DAKOTA

CITY           SKY/WX    TMP DP  RH WIND       PRES   REMARKS
WILLISTON      MOSUNNY   42  36  79 W17       30.06S
MINOT          SUNNY     44  31  60 W21G28    29.98R
MINOT AFB      SUNNY     42  36  79 NW23      29.98R
$$

NDZ018>021-031>035-040>046-291600-
SOUTHWEST NORTH DAKOTA

CITY           SKY/WX    TMP DP  RH WIND       PRES   REMARKS
BISMARCK       SUNNY     44  33  65 NW21G30   30.02R
DICKINSON      SUNNY     40  35  83 NW20      30.07S
GARRISON         N/A     42  35  76 NW21G30   30.02R
HETTINGER ARPT MOSUNNY   42  34  73 NW17      30.11R
$$

NDZ004>008-012>016-024-026-027-054-291600-
NORTHEAST NORTH DAKOTA

CITY           SKY/WX    TMP DP  RH WIND       PRES   REMARKS
GRAND FORKS    PTSUNNY   41  34  76 N28G39    29.77R
DEVILS LAKE    SUNNY     41  34  75 NW22G29   29.87R
$$

NDZ022-023-025-028>030-036>039-047>053-291600-
SOUTHEAST NORTH DAKOTA

CITY           SKY/WX    TMP DP  RH WIND       PRES   REMARKS
FARGO          LGT RAIN  43  35  73 NW30G38   29.77R
JAMESTOWN      SUNNY     42  35  76 NW30G40   29.88R
$$




USA.gov is the U.S. government's official web portal to all federal, state and local government web resources and services.